Weather History for Wheeling, WV

Change the Weather History Date:

Tuesday, March 5, 2013

  Actual Average Record
Temperature  
Mean Temperature 35 °F 36 °F  
Max Temperature 46 °F 45 °F 76 °F (2004)
Min Temperature 24 °F 28 °F 14 °F (2002)
Degree Days  
Heating Degree Days 30 29  
Month to date heating degree days 179 147  
Since 1 July heating degree days 4191 4314  
Cooling Degree Days 0    
Month to date cooling degree days 0  
Year to date cooling degree days 0  
Moisture  
Dew Point 20 °F    
Average Humidity 51    
Maximum Humidity 74    
Minimum Humidity 27    
Precipitation  
Precipitation 0.01 in 0.08 in 1.51 in (1993)
Month to date precipitation 0.01 0.37  
Sea Level Pressure  
Sea Level Pressure 29.83 in    
Wind  
Wind Speed 10 mph (East)    
Max Wind Speed 30 mph    
Max Gust Speed 38 mph    
Visibility 8 miles    
Events Snow    
T = Trace of Precipitation, MM = Missing Value Source: NWS Daily Summary

Daily Weather History Graph

Daily Weather History Graph

Search for Another Location

Airport:

Trip Planner

Search our weather history database for the weather conditions in past years. The results will help you decide how hot, cold, wet, or windy it might be!

Date:

Astronomy

Mar. 05, 2013 Rise Set
Actual Time 6:49 AM EST 6:18 PM EST
Civil Twilight 6:22 AM EST 6:46 PM EST
Nautical Twilight 5:51 AM EST 7:17 PM EST
Astronomical Twilight 5:19 AM EST 7:49 PM EST
Moon 2:00 AM EST (3/5) 11:56 AM EST (3/5)
Length of Visible Light 12h 23m
Length of Day
11h 29m
Last Quarter, 41% of the Moon is Illuminated
Mar 5
Last Quarter
Mar 11
New
Mar 19
First Quarter
Mar 27
Full
Apr 3
Last Quarter

Hourly Weather History & Observations

Time (EST) Temp. Windchill Dew Point Humidity Pressure Visibility Wind Dir Wind Speed Gust Speed Precip Events Conditions
12:53 AM 28.0 °F - 15.1 °F 58% 30.11 in 10.0 mi Calm Calm - N/A   Clear
2:53 AM 25.0 °F 18.1 °F 17.1 °F 72% 30.10 in 10.0 mi NE 5.8 mph - N/A   Clear
3:53 AM 24.1 °F 18.2 °F 17.1 °F 75% 30.09 in 10.0 mi ENE 4.6 mph - N/A   Clear
4:53 AM 24.1 °F 16.0 °F 15.1 °F 69% 30.08 in 10.0 mi East 6.9 mph - N/A   Partly Cloudy
5:53 AM 24.1 °F 17.0 °F 14.0 °F 65% 30.07 in 10.0 mi East 5.8 mph - N/A   Partly Cloudy
8:53 AM 28.0 °F 18.6 °F 17.1 °F 63% 30.05 in 10.0 mi East 10.4 mph - N/A   Clear
9:53 AM 32.0 °F 24.8 °F 19.0 °F 59% 30.05 in 10.0 mi ESE 8.1 mph - N/A   Scattered Clouds
10:53 AM 34.0 °F 26.6 °F 19.0 °F 54% 30.03 in 10.0 mi East 9.2 mph - N/A   Scattered Clouds
11:53 AM 36.0 °F 31.1 °F 19.0 °F 50% 29.99 in 10.0 mi East 5.8 mph - N/A   Partly Cloudy
12:53 PM 37.9 °F 32.1 °F 17.1 °F 43% 29.95 in 10.0 mi ENE 8.1 mph - N/A   Clear
1:53 PM 43.0 °F 36.8 °F 18.0 °F 37% 29.88 in 10.0 mi ENE 11.5 mph - N/A   Partly Cloudy
2:53 PM 44.1 °F 37.7 °F 17.1 °F 34% 29.84 in 10.0 mi ENE 12.7 mph - N/A   Partly Cloudy
3:53 PM 45.0 °F 40.6 °F 12.9 °F 27% 29.82 in 10.0 mi East 8.1 mph 19.6 mph N/A   Clear
4:53 PM 44.1 °F 38.1 °F 12.9 °F 28% 29.79 in 10.0 mi East 11.5 mph - N/A   Clear
5:53 PM 43.0 °F 36.0 °F 12.9 °F 30% 29.75 in 10.0 mi ENE 13.8 mph - N/A   Overcast
6:53 PM 42.1 °F 34.9 °F 14.0 °F 32% 29.74 in 10.0 mi ENE 13.8 mph - N/A   Overcast
7:53 PM 41.0 °F 32.5 °F 15.1 °F 35% 29.69 in 10.0 mi ENE 17.3 mph - N/A   Overcast
8:53 PM 41.0 °F 32.2 °F 15.1 °F 35% 29.66 in 10.0 mi East 18.4 mph 24.2 mph N/A   Scattered Clouds
9:53 PM 42.1 °F 33.6 °F 16.0 °F 35% 29.64 in 10.0 mi East 18.4 mph 26.5 mph N/A   Overcast
10:44 PM 37.4 °F 27.5 °F 26.6 °F 65% 29.62 in 7.0 mi ESE 18.4 mph 35.7 mph N/A   Overcast
10:53 PM 37.0 °F 26.2 °F 27.0 °F 67% 29.65 in 3.0 mi ESE 21.9 mph 29.9 mph 0.00 in Snow Light Snow
11:01 PM 35.6 °F 25.9 °F 28.4 °F 75% 29.62 in 2.0 mi East 16.1 mph 25.3 mph 0.00 in Snow Light Snow
11:14 PM 33.8 °F 24.3 °F 30.2 °F 87% 29.61 in 1.8 mi East 13.8 mph 23.0 mph 0.00 in Snow Light Snow
11:28 PM 33.8 °F 23.9 °F 30.2 °F 87% 29.61 in 2.0 mi ESE 15.0 mph 24.2 mph 0.00 in Snow Light Snow
11:32 PM 33.8 °F 23.9 °F 30.2 °F 87% 29.61 in 1.8 mi East 15.0 mph - 0.00 in Snow Light Snow
11:53 PM 33.1 °F 23.4 °F 30.9 °F 92% 29.65 in 1.0 mi East 13.8 mph 23.0 mph 0.01 in Snow Light Snow